Flag for Mauritania Weather past 2 weeks in Nouakchott, Mauritania

Now
95 °F

Clear.


Feels Like: 90 °F
Forecast: 78 / 102 °F
Wind: 5 mph from Southeast

Location: Nouakchott Airport

Current Time: Oct 24, 2014 at 11:43:49 AM

Latest Report: Oct 24, 2014 at 11:00 AM


Visibility: 4 mi

Pressure: 29.89 "Hg

Humidity: 11%

Dew point: 32 °F

Location of NouakchottLocation

Historic Weather in Nouakchott — Graph

°F

Nouakchott temperature yesterday

Maximum temperature yesterday: 106 °F (at 1:30 PM)
Minimum temperature yesterday: 73 °F (at 7:00 AM)
Average temperature yesterday: 89 °F

Past Weeks' High & Low Weather Summary

 TemperatureHumidityPressure
High108 °F (Oct 22, 2:30 PM)89% (Oct 20, 11:30 PM)29.95 "Hg (Oct 20, 11:30 PM)
Low72 °F (Oct 24, 7:00 AM)8% (Oct 22, 2:30 PM)29.77 "Hg (Oct 10, 2:30 PM)
Average84 °F53%29.85 "Hg
* Reported Oct 9 11:00 AM — Oct 24 11:00 AM, Nouakchott, Weather by CustomWeather, © 2014

Note: Actual official high and low records may vary slightly from our data, if they occured in-between our weather recording intervals... More about our weather records

Advertising

Nouakchott weather history for previous 24 hours

 ConditionsComfort  
Time TempWeatherWind HumidityBarometerVisibility
11:00 AM
Oct 24
95 °FClear.5 mph11%29.89 "Hg4 mi
10:30 AM93 °FClear.3 mph12%29.89 "Hg4 mi
10:00 AM91 °FClear.6 mph13%29.89 "Hg4 mi
9:30 AM88 °FClear.5 mph17%29.89 "Hg4 mi
9:00 AM86 °FDuststorm.5 mph18%29.89 "Hg3 mi
8:30 AM81 °FDuststorm.2 mph28%29.89 "Hg3 mi
8:00 AM75 °FClear.3 mph39%29.86 "Hg4 mi
7:30 AM73 °FClear.6 mph38%29.86 "Hg4 mi
7:00 AM72 °FClear.7 mph44%29.86 "Hg4 mi
6:30 AM73 °FClear.7 mph41%29.83 "Hg4 mi
6:00 AM75 °FClear.9 mph41%29.83 "Hg4 mi
5:30 AM75 °FClear.7 mph41%29.83 "Hg4 mi
5:00 AM79 °FClear.8 mph37%29.83 "Hg4 mi
4:30 AM79 °FClear.8 mph39%29.83 "Hg4 mi
4:00 AM79 °FClear.7 mph39%29.83 "Hg4 mi
3:30 AM77 °FClear.5 mph39%29.83 "Hg4 mi
3:00 AM79 °FClear.5 mph34%29.83 "Hg4 mi
2:30 AM79 °FClear.6 mph32%29.83 "Hg4 mi
2:00 AM81 °FClear.7 mph32%29.83 "Hg4 mi
1:30 AM81 °FClear.10 mph32%29.86 "Hg4 mi
1:00 AM81 °FClear.3 mph34%29.86 "Hg4 mi
12:30 AM81 °FClear.5 mph32%29.86 "Hg4 mi
12:00 AM82 °FClear.6 mph28%29.86 "Hg4 mi
11:30 PM
Oct 23
82 °FClear.6 mph28%29.89 "Hg4 mi
11:00 PM84 °FClear.6 mph29%29.89 "Hg4 mi
10:30 PM84 °FClear.8 mph29%29.89 "Hg4 mi
10:00 PM84 °FClear.6 mph33%29.86 "Hg4 mi
9:30 PM84 °FClear.7 mph35%29.86 "Hg4 mi
9:00 PM86 °FClear.7 mph33%29.86 "Hg4 mi
8:30 PM86 °FClear.6 mph31%29.83 "Hg4 mi
8:00 PM86 °FClear.5 mph29%29.83 "Hg4 mi
7:30 PM88 °FClear.7 mph29%29.80 "Hg4 mi
7:00 PM90 °FClear.7 mph26%29.80 "Hg4 mi
6:30 PM91 °FClear.7 mph24%29.80 "Hg5 mi
6:00 PM97 °FClear.7 mph19%29.80 "Hg5 mi
5:30 PM104 °FClear.7 mph8%29.80 "Hg5 mi
5:00 PM106 °FClear.8 mph8%29.77 "Hg5 mi
4:30 PM106 °FClear.10 mph8%29.80 "Hg5 mi
4:00 PM106 °FClear.5 mph8%29.80 "Hg5 mi
3:30 PM106 °FClear.8 mph8%29.80 "Hg5 mi
3:00 PM106 °FClear.9 mph8%29.80 "Hg5 mi
2:30 PM106 °FClear.12 mph8%29.80 "Hg5 mi
2:00 PM106 °FClear.10 mph8%29.83 "Hg5 mi
1:30 PM106 °FClear.13 mph9%29.83 "Hg5 mi
1:00 PM104 °FClear.14 mph8%29.86 "Hg5 mi
12:30 PM104 °FClear.12 mph9%29.86 "Hg5 mi
12:00 PM100 °FClear.12 mph10%29.89 "Hg5 mi
11:30 AM100 °FClear.13 mph10%29.89 "Hg5 mi
11:00 AM99 °FClear.13 mph10%29.92 "Hg5 mi
Weather by CustomWeather, © 2014

See weather overviewHow to use our weather pages